| time (UTC) | temp F | wind direction | speed knots | gust knots | rain 1hr in | rain 24hr in | rain mn in | humidity % | barometer mb |
| 20260905181004 | 76 | 239 | 1.7 | 6.1 | 0.00 | 0.00 | 0.00 | 71 | 1020.3 |
| 20260905180003 | 76 | 194 | 2.6 | 7.8 | 0.00 | 0.00 | 0.00 | 73 | 1020.2 |
| 20260905175004 | 76 | 218 | 1.7 | 4.3 | 0.00 | 0.00 | 0.00 | 72 | 1020.4 |
| 20260905174004 | 76 | 233 | 0.9 | 7.8 | 0.00 | 0.00 | 0.00 | 73 | 1020.6 |
| 20260905173004 | 74 | 249 | 1.7 | 4.3 | 0.00 | 0.00 | 0.00 | 72 | 1020.6 |
| 20260905172003 | 73 | 293 | 1.7 | 6.1 | 0.00 | 0.00 | 0.00 | 73 | 1020.8 |
| 20260905171003 | 73 | 218 | 2.6 | 5.2 | 0.00 | 0.00 | 0.00 | 74 | 1020.6 |
| 20260905170004 | 71 | 317 | 0.0 | 4.3 | 0.00 | 0.00 | 0.00 | 76 | 1020.9 |
| 20260905165003 | 72 | 69 | 1.7 | 6.1 | 0.00 | 0.00 | 0.00 | 79 | 1021.0 |
| 20260905164003 | 73 | 280 | 3.5 | 5.2 | 0.00 | 0.00 | 0.00 | 76 | 1021.1 |
| 20260905163004 | 71 | 117 | 1.7 | 5.2 | 0.00 | 0.00 | 0.00 | 77 | 1021.2 |
| 20260905162003 | 71 | 150 | 0.9 | 4.3 | 0.00 | 0.00 | 0.00 | 76 | 1021.2 |
| 20260905161004 | 72 | 12 | 0.9 | 2.6 | 0.00 | 0.00 | 0.00 | 77 | 1021.5 |
| 20260905160003 | 68 | 171 | 0.9 | 5.2 | 0.00 | 0.00 | 0.00 | 81 | 1021.5 |
| 20260905155004 | 69 | 339 | 1.7 | 5.2 | 0.00 | 0.00 | 0.00 | 83 | 1021.4 |
| 20260905154003 | 69 | 334 | 3.5 | 5.2 | 0.00 | 0.00 | 0.00 | 86 | 1021.5 |
| 20260905152004 | 69 | 26 | 1.7 | 5.2 | 0.00 | 0.00 | 0.00 | 85 | 1021.4 |
| 20260905150004 | 69 | 2 | 1.7 | 2.6 | 0.00 | 0.00 | 0.00 | 84 | 1021.1 |
| 20260905145004 | 68 | 1 | 2.6 | 4.3 | 0.00 | 0.00 | 0.00 | 84 | 1021.0 |
| 20260905144003 | 69 | 87 | 0.9 | 5.2 | 0.00 | 0.00 | 0.00 | 86 | 1021.2 |
| 20260905143003 | 67 | 82 | 0.9 | 4.3 | 0.00 | 0.00 | 0.00 | 87 | 1021.1 |
| 20260905142005 | 67 | 52 | 0.0 | 2.6 | 0.00 | 0.00 | 0.00 | 88 | 1021.0 |
| 20260905141003 | 66 | 52 | 0.9 | 2.6 | 0.00 | 0.00 | 0.00 | 90 | 1020.7 |
| 20260905140004 | 66 | 85 | 0.9 | 2.6 | 0.00 | 0.00 | 0.00 | 92 | 1020.9 |
| 20260905134004 | 65 | 11 | 0.9 | 1.7 | 0.00 | 0.00 | 0.00 | 94 | 1020.8 |
| 20260905133003 | 65 | 145 | 0.0 | 1.7 | 0.00 | 0.00 | 0.00 | 95 | 1020.7 |
| 20260905132004 | 64 | 270 | 0.0 | 1.7 | 0.00 | 0.00 | 0.00 | 95 | 1020.7 |
| 20260905131004 | 64 | 286 | 0.0 | 2.6 | 0.00 | 0.00 | 0.00 | 95 | 1020.6 |
| 20260905125003 | 64 | 316 | 0.0 | 4.3 | 0.00 | 0.00 | 0.00 | 94 | 1020.3 |
| 20260905124004 | 65 | 342 | 1.7 | 2.6 | 0.00 | 0.00 | 0.00 | 93 | 1020.5 |
| 20260905123004 | 65 | 36 | 1.7 | 1.7 | 0.00 | 0.00 | 0.00 | 94 | 1020.5 |
| 20260905122004 | 65 | 90 | 0.9 | 1.7 | 0.00 | 0.00 | 0.00 | 94 | 1020.4 |
| 20260905121004 | 65 | 136 | 0.9 | 6.1 | 0.00 | 0.00 | 0.00 | 94 | 1020.4 |
| 20260905120003 | 65 | 78 | 1.7 | 4.3 | 0.00 | 0.00 | 0.00 | 94 | 1020.3 |
| 20260905114004 | 64 | 74 | 1.7 | 2.6 | 0.00 | 0.00 | 0.00 | 94 | 1020.0 |
| 20260905113004 | 64 | 92 | 0.9 | 2.6 | 0.00 | 0.00 | 0.00 | 94 | 1019.9 |
| 20260905112004 | 64 | 70 | 0.9 | 2.6 | 0.00 | 0.00 | 0.00 | 94 | 1019.9 |
| 20260905111006 | 64 | 53 | 1.7 | 2.6 | 0.00 | 0.00 | 0.00 | 95 | 1020.0 |
| 20260905110004 | 64 | 47 | 0.9 | 2.6 | 0.00 | 0.00 | 0.00 | 95 | 1020.1 |
| 20260905103005 | 64 | 5 | 0.9 | 2.6 | 0.00 | 0.00 | 0.00 | 96 | 1020.0 |
| 20260905102003 | 64 | 342 | 1.7 | 2.6 | 0.00 | 0.00 | 0.00 | 96 | 1020.3 |
| 20260905101004 | 64 | 4 | 0.9 | 4.3 | 0.00 | 0.00 | 0.00 | 96 | 1020.3 |
| 20260905100005 | 64 | 279 | 1.7 | 2.6 | 0.00 | 0.00 | 0.00 | 95 | 1020.2 |
| 20260905095004 | 65 | 341 | 1.7 | 2.6 | 0.00 | 0.00 | 0.00 | 95 | 1020.4 |
| 20260905094004 | 65 | 34 | 0.9 | 2.6 | 0.00 | 0.00 | 0.00 | 95 | 1020.0 |
| 20260905091004 | 65 | 109 | 0.0 | 1.7 | 0.00 | 0.00 | 0.00 | 94 | 1020.4 |
| 20260905090004 | 65 | 112 | 0.0 | 2.6 | 0.00 | 0.00 | 0.00 | 94 | 1020.1 |
| 20260905085004 | 65 | 91 | 0.9 | 2.6 | 0.00 | 0.00 | 0.00 | 94 | 1020.0 |
| 20260905084004 | 65 | 98 | 0.9 | 2.6 | 0.00 | 0.00 | 0.00 | 94 | 1020.1 |
| 20260905083004 | 64 | 72 | 1.7 | 2.6 | 0.00 | 0.00 | 0.00 | 94 | 1020.0 |
| 20260905082004 | 65 | 113 | 0.9 | 2.6 | 0.00 | 0.00 | 0.00 | 94 | 1020.1 |
| 20260905081004 | 65 | 83 | 1.7 | 1.7 | 0.00 | 0.00 | 0.00 | 95 | 1020.0 |
| 20260905080004 | 65 | 105 | 0.9 | 2.6 | 0.00 | 0.00 | 0.00 | 95 | 1020.1 |
| 20260905075004 | 65 | 148 | 0.0 | 2.6 | 0.00 | 0.00 | 0.00 | 95 | 1020.2 |
| 20260905074005 | 65 | 45 | 0.0 | 2.6 | 0.00 | 0.00 | 0.00 | 95 | 1020.2 |
| 20260905073004 | 65 | 298 | 0.9 | 2.6 | 0.00 | 0.00 | 0.00 | 94 | 1020.1 |
| 20260905072004 | 66 | 290 | 0.9 | 2.6 | 0.00 | 0.00 | 0.00 | 92 | 1020.1 |
| 20260905064004 | 67 | 79 | 0.9 | 2.6 | 0.00 | 0.00 | 0.00 | 91 | 1020.7 |
| 20260905063006 | 67 | 142 | 1.7 | 2.6 | 0.00 | 0.00 | 0.00 | 91 | 1020.5 |
| 20260905062003 | 67 | 92 | 0.9 | 2.6 | 0.00 | 0.00 | 0.00 | 91 | 1020.7 |
| 20260905061005 | 67 | 88 | 0.0 | 2.6 | 0.00 | 0.00 | 0.00 | 91 | 1020.8 |
| 20260905055005 | 68 | 113 | 1.7 | 5.2 | 0.00 | 0.00 | 0.00 | 91 | 1020.6 |
| 20260905052004 | 68 | 157 | 2.6 | 6.1 | 0.00 | 0.00 | 0.00 | 91 | 1020.6 |
| 20260905051005 | 67 | 124 | 0.9 | 2.6 | 0.00 | 0.00 | 0.00 | 92 | 1020.7 |
| 20260905045004 | 68 | 254 | 0.9 | 5.2 | 0.00 | 0.00 | 0.00 | 92 | 1020.7 |
| 20260905043004 | 69 | 260 | 1.7 | 6.1 | 0.00 | 0.00 | 0.00 | 88 | 1020.7 |
| 20260905041005 | 70 | 144 | 2.6 | 5.2 | 0.00 | 0.00 | 0.00 | 87 | 1020.5 |
| 20260905040004 | 70 | 345 | 0.9 | 5.2 | 0.00 | 0.00 | 0.00 | 87 | 1020.4 |
| 20260905033004 | 70 | 124 | 0.9 | 8.7 | 0.00 | 0.00 | 0.00 | 84 | 1020.5 |
| 20260905032004 | 70 | 163 | 0.9 | 12.2 | 0.00 | 0.00 | 0.00 | 85 | 1020.5 |
| 20260905030004 | 70 | 115 | 3.5 | 11.3 | 0.00 | 0.00 | 0.00 | 82 | 1020.3 |
| 20260905025006 | 70 | 181 | 2.6 | 12.2 | 0.00 | 0.00 | 0.00 | 84 | 1020.2 |
| 20260905024004 | 70 | 128 | 3.5 | 13.9 | 0.00 | 0.00 | 0.00 | 83 | 1020.2 |
| 20260905023004 | 71 | 151 | 6.1 | 13.9 | 0.00 | 0.00 | 0.00 | 83 | 1020.1 |
| 20260905022006 | 71 | 143 | 6.1 | 13.0 | 0.00 | 0.00 | 0.00 | 79 | 1019.8 |
| 20260905021004 | 71 | 152 | 7.0 | 13.0 | 0.00 | 0.00 | 0.00 | 77 | 1019.8 |
| 20260905014005 | 72 | 144 | 2.6 | 14.8 | 0.00 | 0.00 | 0.00 | 82 | 1019.4 |
| 20260905013004 | 73 | 133 | 6.1 | 12.2 | 0.00 | 0.00 | 0.00 | 80 | 1019.3 |
| 20260905012005 | 73 | 114 | 7.8 | 15.6 | 0.00 | 0.00 | 0.00 | 80 | 1019.6 |
| 20260905010004 | 73 | 151 | 3.5 | 11.3 | 0.00 | 0.00 | 0.00 | 84 | 1019.2 |
| 20260905005004 | 73 | 181 | 4.3 | 12.2 | 0.00 | 0.00 | 0.00 | 85 | 1019.1 |
| 20260905002005 | 76 | 137 | 2.6 | 13.9 | 0.00 | 0.00 | 0.00 | 80 | 1018.5 |
| 20260905000006 | 77 | 148 | 5.2 | 13.9 | 0.00 | 0.00 | 0.00 | 78 | 1018.2 |
| 20260904235006 | 77 | 182 | 5.2 | 14.8 | 0.00 | 0.00 | 0.00 | 76 | 1017.9 |
| 20260904234005 | 77 | 175 | 6.1 | 13.9 | 0.00 | 0.00 | 0.00 | 76 | 1017.9 |
| 20260904233004 | 78 | 154 | 2.6 | 15.6 | 0.00 | 0.00 | 0.00 | 75 | 1018.1 |
| 20260904232005 | 78 | 175 | 4.3 | 13.0 | 0.00 | 0.00 | 0.00 | 74 | 1018.2 |
| 20260904231004 | 78 | 183 | 4.3 | 13.9 | 0.00 | 0.00 | 0.00 | 74 | 1018.2 |
| 20260904230008 | 78 | 136 | 4.3 | 14.8 | 0.00 | 0.00 | 0.00 | 72 | 1018.5 |
| 20260904225004 | 79 | 149 | 7.8 | 14.8 | 0.00 | 0.00 | 0.00 | 72 | 1018.2 |
| 20260904224004 | 79 | 165 | 7.0 | 15.6 | 0.00 | 0.00 | 0.00 | 70 | 1018.1 |
| 20260904223004 | 79 | 173 | 5.2 | 13.9 | 0.00 | 0.00 | 0.00 | 70 | 1018.1 |
| 20260904222004 | 80 | 168 | 5.2 | 13.0 | 0.00 | 0.00 | 0.00 | 66 | 1018.3 |
| 20260904221005 | 80 | 202 | 2.6 | 13.0 | 0.00 | 0.00 | 0.00 | 66 | 1018.0 |
| 20260904220005 | 80 | 315 | 1.7 | 12.2 | 0.00 | 0.00 | 0.00 | 66 | 1018.1 |
| 20260904215004 | 80 | 177 | 4.3 | 12.2 | 0.00 | 0.00 | 0.00 | 62 | 1018.2 |
| 20260904214004 | 79 | 178 | 4.3 | 13.9 | 0.00 | 0.00 | 0.00 | 66 | 1018.2 |
| 20260904213004 | 79 | 144 | 5.2 | 12.2 | 0.00 | 0.00 | 0.00 | 65 | 1018.3 |
| 20260904212005 | 80 | 221 | 4.3 | 7.8 | 0.00 | 0.00 | 0.00 | 62 | 1018.3 |
| 20260904211005 | 80 | 184 | 4.3 | 7.8 | 0.00 | 0.00 | 0.00 | 62 | 1018.5 |
| 20260904210004 | 81 | 220 | 1.7 | 8.7 | 0.00 | 0.00 | 0.00 | 60 | 1018.6 |
| 20260904205005 | 80 | 179 | 4.3 | 13.0 | 0.00 | 0.00 | 0.00 | 59 | 1018.8 |
| 20260904204005 | 80 | 147 | 4.3 | 10.4 | 0.00 | 0.00 | 0.00 | 60 | 1019.0 |
| 20260904203004 | 82 | 167 | 2.6 | 10.4 | 0.00 | 0.00 | 0.00 | 56 | 1019.1 |
| 20260904202004 | 81 | 177 | 3.5 | 12.2 | 0.00 | 0.00 | 0.00 | 54 | 1019.2 |
| 20260904200004 | 80 | 87 | 2.6 | 11.3 | 0.00 | 0.00 | 0.00 | 53 | 1019.4 |
| 20260904195004 | 82 | 166 | 6.1 | 10.4 | 0.00 | 0.00 | 0.00 | 53 | 1019.6 |
| 20260904193007 | 80 | 155 | 5.2 | 7.0 | 0.00 | 0.00 | 0.00 | 59 | 1019.8 |
| 20260904192005 | 81 | 193 | 2.6 | 7.0 | 0.00 | 0.00 | 0.00 | 58 | 1019.8 |
| 20260904190005 | 78 | 125 | 4.3 | 6.1 | 0.00 | 0.00 | 0.00 | 64 | 1020.1 |
| 20260904185003 | 78 | 15 | 0.9 | 7.0 | 0.00 | 0.00 | 0.00 | 63 | 1020.3 |
| 20260904184003 | 79 | 246 | 4.3 | 7.0 | 0.00 | 0.00 | 0.00 | 64 | 1020.5 |
| 20260904183015 | 77 | 166 | 0.9 | 6.1 | 0.00 | 0.00 | 0.00 | 65 | 1020.6 |
| 20260904182012 | 77 | 306 | 0.9 | 4.3 | 0.00 | 0.00 | 0.00 | 64 | 1020.9 |